Regional Weather Roundup
Issued by NWS Northern Indiana

Home | Current Version | Previous Version | Text Only | Print | Product List | Glossary On
Versions: 1 2 3 4 5 6 7 8 9 10 11 12 13 14 15 16 17 18 19 20 21 22 23 24 25 26 27 28 29 30 31 32 33 34 35 36 37 38 39 40 41 42 43 44 45 46 47 48 49 50
000
ASUS43 KIWX 161410
RWRIWX

KIWX WEATHER ROUNDUP
NATIONAL WEATHER SERVICE NORTHERN INDIANA
1000 AM EDT WED APR 16 2014

NOTE: "FAIR" INDICATES FEW OR NO CLOUDS BELOW 12,000 FEET WITH NO
SIGNIFICANT WEATHER AND/OR OBSTRUCTIONS TO VISIBILITY.

* THESE STATIONS ARE NOT UNDER NWS QUALITY CONTROL. THEY ALSO MAY NOT
  REPORT WEATHER SUCH AS PRECIPITATION OR FOG.

INZ001>027-161500-
NORTHERN INDIANA

CITY           SKY/WX    TMP DP  RH WIND       PRES   REMARKS
GARY*          MOSUNNY   37  21  52 SE12      30.34R
VALPARAISO     SUNNY     34  21  59 SE14      30.35R WCI  25
MICHIGAN CITY* SUNNY     36  19  51 SE9       30.35F
LAPORTE*       SUNNY     35  21  57 S8        30.36S WCI  28
SOUTH BEND     SUNNY     36  17  46 SE12      30.37R
ELKHART*       SUNNY     36  16  44 S9        30.39R
GOSHEN         SUNNY     36  16  44 SE12      30.39R
MONTICELLO*    SUNNY     35  22  59 S12       30.36R WCI  27
LOGANSPORT*    SUNNY     36  19  51 S10       30.38S
ROCHESTER*     SUNNY     37  21  52 SE9       30.38S
WARSAW*        SUNNY     34  18  51 S8        30.39R WCI  27
ANGOLA*        SUNNY     32  16  51 S12       30.39S WCI  23
FORT WAYNE     MOSUNNY   35  17  47 SE13      30.41R WCI  26
HUNTINGTON*    FAIR      33  17  51 S8        30.40R WCI  26
PERU/GRISSOM   SUNNY     35  20  54 S14       30.37S WCI  26
MARION*        SUNNY     33  18  52 S12       30.39S WCI  25

$$
INZ028>050-161500-
CENTRAL INDIANA

CITY           SKY/WX    TMP DP  RH WIND       PRES   REMARKS
LAFAYETTE      SUNNY     36  20  52 SE13G21   30.36S
KOKOMO*        SUNNY     36  21  55 S14       30.37F
MUNCIE*        SUNNY     34  15  46 S10       30.39S WCI  26
INDIANAPOLIS   MOSUNNY   34  18  52 SE12      30.37R WCI  25

$$
MIZ043>046-050>051-056>058-064>065-071>073-077>080-161500-
SOUTHWEST LOWER MICHIGAN

CITY           SKY/WX    TMP DP  RH WIND       PRES   REMARKS
BATTLE CREEK   SUNNY     34  16  47 S10       30.39R WCI  26
BENTON HARBOR  SUNNY     34  19  54 S12       30.37R WCI  25
COLDWATER*     SUNNY     33  15  47 S10       30.39S WCI  25
HILLSDALE*     SUNNY     33  14  46 S9        30.39R WCI  25
HOLLAND        PTSUNNY   33  18  53 SE13      30.38R WCI  24
GRAND RAPIDS   PTSUNNY   35  17  47 S14       30.38S WCI  26
KALAMAZOO      MOSUNNY   34  14  43 S12       30.38S WCI  25
STURGIS*       SUNNY     34  16  47 SE12      30.38S WCI  25
THREE RIVERS*  FAIR      35  15  43 S13       30.40R WCI  26

$$
OHZ001>008-015>018-024>025-161500-
NORTHWEST OHIO

CITY           SKY/WX    TMP DP  RH WIND       PRES   REMARKS
WAUSEON*       FAIR      32  14  47 SE8       30.43S WCI  25
DEFIANCE       SUNNY     35  13  40 SE8       30.43R WCI  29
FINDLAY        SUNNY     32  15  49 SE8       30.43R WCI  25
TOLEDO EXPRESS SUNNY     33  14  45 VRB5      30.44R WCI  29
TOLEDO METCALF SUNNY     34  11  38 S5        30.45R WCI  30
LIMA           SUNNY     34  14  43 SE9       30.42R WCI  27

$$
&&



USA.gov is the U.S. government's official web portal to all federal, state and local government web resources and services.